Weather History for Tallahassee, FL

Change the Weather History Date:

Saturday, December 8, 2012

  Actual Average Record
Temperature  
Mean Temperature 63 °F 54 °F  
Max Temperature 73 °F 67 °F 81 °F (1998)
Min Temperature 52 °F 42 °F 21 °F (2010)
Degree Days  
Heating Degree Days 2    
Month to date heating degree days 12  
Since 1 July heating degree days 270  
Cooling Degree Days 0    
Month to date cooling degree days 2  
Year to date cooling degree days 2960  
Growing Degree Days 12 (Base 50)    
Moisture  
Dew Point 57 °F    
Average Humidity 84    
Maximum Humidity 100    
Minimum Humidity 68    
Precipitation  
Precipitation 0.00 in 0.13 in 4.04 in (1948)
Month to date precipitation 0.00 1.03  
Year to date precipitation 56.04 56.36  
Sea Level Pressure  
Sea Level Pressure 30.03 in    
Wind  
Wind Speed 3 mph (ESE)    
Max Wind Speed 12 mph    
Max Gust Speed 14 mph    
Visibility 4 miles    
Events Fog    
T = Trace of Precipitation, MM = Missing Value Source: NWS Daily Summary

Daily Weather History Graph

Daily Weather History Graph

Search for Another Location

Airport:

Trip Planner

Search our weather history database for the weather conditions in past years. The results will help you decide how hot, cold, wet, or windy it might be!

Date:

Astronomy

Dec. 08, 2012 Rise Set
Actual Time 7:22 AM EST 5:36 PM EST
Civil Twilight 6:55 AM EST 6:03 PM EST
Nautical Twilight 6:26 AM EST 6:33 PM EST
Astronomical Twilight 5:56 AM EST 7:02 PM EST
Moon 2:03 AM EST (12/8) 1:50 PM EST (12/8)
Length of Visible Light 11h 07m
Length of Day
10h 14m
Waning Crescent, 28% of the Moon is Illuminated
Dec 8
Waning Crescent
Dec 13
New
Dec 20
First Quarter
Dec 28
Full
Jan 4
Last Quarter

Hourly Weather History & Observations

Time (EST) Temp. Dew Point Humidity Pressure Visibility Wind Dir Wind Speed Gust Speed Precip Events Conditions
12:53 AM 52.0 °F 48.9 °F 89% 30.01 in 10.0 mi Calm Calm - N/A   Partly Cloudy
1:28 AM 53.6 °F 51.8 °F 94% 30.01 in 5.0 mi Calm Calm - N/A   Mostly Cloudy
1:42 AM 55.4 °F 53.6 °F 94% 30.01 in 2.0 mi Calm Calm - N/A   Overcast
1:53 AM 55.9 °F 52.0 °F 87% 30.01 in 2.0 mi Calm Calm - N/A   Overcast
2:11 AM 55.4 °F 53.6 °F 94% 30.01 in 0.8 mi Calm Calm - N/A   Mist
2:25 AM 55.4 °F 53.6 °F 94% 30.01 in 0.2 mi Calm Calm - N/A Fog Fog
2:33 AM 55.4 °F 55.4 °F 100% 30.01 in 0.2 mi Calm Calm - N/A Fog Fog
2:53 AM 55.9 °F 55.0 °F 97% 30.01 in 0.1 mi Calm Calm - N/A Fog Fog
3:16 AM 57.2 °F 55.4 °F 94% 30.01 in 0.5 mi Calm Calm - N/A Fog Fog
3:33 AM 55.4 °F 53.6 °F 94% 30.00 in 2.0 mi East 3.5 mph - N/A   Overcast
3:53 AM 55.0 °F 53.1 °F 93% 30.00 in 2.0 mi Calm Calm - N/A   Overcast
4:09 AM 55.4 °F 53.6 °F 94% 30.00 in 1.5 mi East 3.5 mph - N/A   Overcast
4:24 AM 55.4 °F 53.6 °F 94% 30.00 in 0.2 mi Calm Calm - N/A Fog Fog
4:47 AM 55.4 °F 53.6 °F 94% 30.00 in 1.0 mi ESE 4.6 mph - N/A   Mist
4:53 AM 55.0 °F 53.1 °F 93% 29.99 in 1.0 mi ESE 4.6 mph - N/A   Mist
5:29 AM 55.4 °F 53.6 °F 94% 30.00 in 0.5 mi ESE 8.1 mph - N/A Fog Fog
5:48 AM 55.4 °F 53.6 °F 94% 30.01 in 0.2 mi SE 4.6 mph - N/A Fog Fog
5:53 AM 55.4 °F 53.6 °F 94% 30.01 in 0.2 mi SE 3.5 mph - N/A Fog Fog
6:53 AM 55.9 °F 55.0 °F 97% 30.02 in 0.2 mi ESE 3.5 mph - N/A Fog Fog
7:53 AM 57.0 °F 55.0 °F 93% 30.04 in 0.2 mi East 3.5 mph - N/A Fog Fog
8:53 AM 57.0 °F 55.9 °F 96% 30.06 in 0.2 mi Calm Calm - N/A Fog Fog
9:53 AM 59.0 °F 57.0 °F 93% 30.07 in 0.2 mi East 3.5 mph - N/A Fog Fog
10:08 AM 59.0 °F 57.2 °F 94% 30.07 in 0.5 mi East 3.5 mph - N/A Fog Fog
10:26 AM 59.0 °F 57.2 °F 94% 30.06 in 1.0 mi Calm Calm - N/A   Overcast
10:36 AM 59.0 °F 57.2 °F 94% 30.07 in 2.0 mi SE 3.5 mph - N/A   Overcast
10:53 AM 60.1 °F 57.9 °F 93% 30.06 in 3.0 mi ESE 5.8 mph - N/A   Overcast
11:50 AM 64.4 °F 57.2 °F 77% 30.04 in 10.0 mi Calm Calm - N/A   Overcast
11:53 AM 64.9 °F 59.0 °F 81% 30.04 in 10.0 mi Calm Calm - N/A   Overcast
12:26 PM 68.0 °F 59.0 °F 73% 30.02 in 10.0 mi Variable 4.6 mph - N/A   Mostly Cloudy
12:42 PM 69.8 °F 59.0 °F 68% 30.02 in 10.0 mi Calm Calm - N/A   Partly Cloudy
12:53 PM 70.0 °F 59.0 °F 68% 30.01 in 10.0 mi Variable 3.5 mph - N/A   Scattered Clouds
1:53 PM 71.1 °F 60.1 °F 68% 29.99 in 10.0 mi Variable 3.5 mph - N/A   Mostly Cloudy
2:53 PM 68.0 °F 60.1 °F 76% 30.00 in 10.0 mi SSE 8.1 mph - N/A   Mostly Cloudy
3:53 PM 66.0 °F 60.1 °F 81% 30.01 in 10.0 mi South 8.1 mph - N/A   Overcast
4:02 PM 66.2 °F 60.8 °F 83% 30.00 in 10.0 mi South 6.9 mph - N/A   Overcast
4:53 PM 64.9 °F 61.0 °F 87% 30.01 in 10.0 mi SSE 5.8 mph - N/A   Overcast
5:53 PM 64.9 °F 62.1 °F 90% 30.02 in 5.0 mi Calm Calm - N/A   Overcast
6:25 PM 64.4 °F 62.6 °F 94% 30.03 in 3.0 mi ESE 4.6 mph - N/A   Overcast
6:53 PM 64.0 °F 62.1 °F 93% 30.04 in 5.0 mi ESE 3.5 mph - N/A   Overcast
7:53 PM 64.0 °F 62.1 °F 93% 30.04 in 5.0 mi ESE 3.5 mph - N/A   Overcast
8:25 PM 64.4 °F 62.6 °F 94% 30.06 in 6.0 mi Calm Calm - N/A   Overcast
8:53 PM 64.0 °F 62.1 °F 93% 30.06 in 6.0 mi ESE 4.6 mph - N/A   Overcast
9:29 PM 64.4 °F 62.6 °F 94% 30.06 in 3.0 mi Calm Calm - N/A   Overcast
9:53 PM 64.0 °F 62.1 °F 93% 30.06 in 4.0 mi ESE 4.6 mph - N/A   Overcast
10:53 PM 63.0 °F 61.0 °F 93% 30.06 in 9.0 mi ESE 5.8 mph - N/A   Mostly Cloudy
11:53 PM 63.0 °F 61.0 °F 93% 30.06 in 9.0 mi Calm Calm - N/A   Overcast